Barksdale AFB, LA

9:16 AM CST on January 17, 2018 (GMT -0600)
Barksdale Air Force Base

Weather History for KBAD - December, 2012

Change the Weather History Date:

Wednesday, December 12, 2012

  Actual Average Record
Temperature  
Mean Temperature 40 °F -  
Max Temperature 53 °F 55 °F 77 °F (1996)
Min Temperature 26 °F 36 °F 23 °F (2000)
Degree Days  
Heating Degree Days 26    
Moisture  
Dew Point 22 °F    
Average Humidity 58    
Maximum Humidity 85    
Minimum Humidity 26    
Precipitation  
Precipitation 0.00 in - - ()
Sea Level Pressure  
Sea Level Pressure 30.32 in    
Wind  
Wind Speed 1 mph (ESE)    
Max Wind Speed 8 mph    
Max Gust Speed -    
Visibility 10 miles    
Events      
Averages and records for this station are not official NWS values.
T = Trace of Precipitation, MM = Missing Value Source: NWS Daily Summary

Daily Weather History Graph

Daily Weather History Graph

Search for Another Location

Airport or City:

Trip Planner

Search our weather history database for the weather conditions in past years. The results will help you decide how hot, cold, wet, or windy it might be!

Date:

Astronomy

Dec. 12, 2012 Rise Set
Actual Time 7:07 AM CST 5:10 PM CST
Civil Twilight 6:40 AM CST 5:37 PM CST
Nautical Twilight 6:09 AM CST 6:07 PM CST
Astronomical Twilight 5:39 AM CST 6:37 PM CST
Moon 6:13 AM CST (12/12) 4:46 PM CST (12/12)
Length of Visible Light 10h 57m
Length of Day
10h 02m
Waning Crescent, 1% of the Moon is Illuminated
Dec 12
Waning Crescent
Dec 13
New
Dec 19
First Quarter
Dec 28
Full
Jan 4
Last Quarter

Hourly Weather History & Observations

Time (CST) Temp. Windchill Dew Point Humidity Pressure Visibility Wind Dir Wind Speed Gust Speed Precip Events Conditions
12:55 AM 30.9 °F - 24.4 °F 77% 30.27 in 10.0 mi Calm Calm - N/A   Clear
1:55 AM 29.5 °F - 23.2 °F 77% 30.27 in 10.0 mi Calm Calm - N/A   Clear
2:55 AM 31.5 °F - 23.2 °F 71% 30.27 in 10.0 mi Calm Calm - N/A   Clear
3:55 AM 27.0 °F - 21.6 °F 80% 30.27 in 10.0 mi Calm Calm - N/A   Clear
4:55 AM 27.3 °F - 22.6 °F 83% 30.29 in 10.0 mi Calm Calm - N/A   Clear
5:55 AM 26.6 °F 22.6 °F 21.2 °F 80% 30.31 in 10.0 mi North 3.5 mph - N/A   Clear
6:55 AM 26.8 °F - 22.8 °F 85% 30.33 in 10.0 mi Calm Calm - N/A   Clear
7:55 AM 28.2 °F 24.4 °F 23.4 °F 82% 30.35 in 10.0 mi NNW 3.5 mph - N/A   Clear
8:55 AM 34.2 °F - 26.6 °F 74% 30.38 in 10.0 mi Calm Calm - N/A   Clear
9:55 AM 41.0 °F - 26.8 °F 57% 30.40 in 10.0 mi Calm Calm - N/A   Clear
10:55 AM 45.9 °F 44.6 °F 25.0 °F 44% 30.38 in 10.0 mi ESE 3.5 mph - N/A   Clear
11:55 AM 50.0 °F - 16.0 °F 26% 30.34 in 10.0 mi East 8.1 mph - N/A   Clear
12:55 PM 52.3 °F - 17.8 °F 26% 30.32 in 10.0 mi ESE 5.8 mph - N/A   Clear
1:55 PM 53.4 °F - 18.9 °F 26% 30.30 in 10.0 mi Calm Calm - N/A   Clear
2:55 PM 53.6 °F - 18.9 °F 26% 30.29 in 10.0 mi Calm Calm - N/A   Clear
3:55 PM 53.4 °F - 18.9 °F 26% 30.29 in 10.0 mi Calm Calm - N/A   Clear
4:55 PM 50.7 °F - 19.9 °F 30% 30.29 in 10.0 mi SSE 3.5 mph - N/A   Clear
5:55 PM 47.3 °F - 19.2 °F 33% 30.29 in 10.0 mi Calm Calm - N/A   Clear
6:55 PM 39.7 °F - 25.3 °F 56% 30.30 in 10.0 mi Calm Calm - N/A   Clear
7:55 PM 36.9 °F - 25.9 °F 64% 30.31 in 10.0 mi Calm Calm - N/A   Clear
8:55 PM 34.3 °F - 23.7 °F 65% 30.32 in 10.0 mi Calm Calm - N/A   Clear
9:55 PM 34.2 °F - 24.8 °F 69% 30.34 in 10.0 mi Calm Calm - N/A   Clear
10:55 PM 33.1 °F 30.0 °F 25.2 °F 73% 30.34 in 10.0 mi SSE 3.5 mph - N/A   Clear
11:55 PM 32.5 °F - 24.6 °F 73% 30.33 in 10.0 mi Calm Calm - N/A   Clear